Location: Castiglione Fibocchi
(43.5333°N, 11.7667°E)
Time: 16:48:50
(UTC+00:00)

Spot 4 Rocket - Pass Details

Date: 15 August 2020
Orbit: 776 x 781 km, 98.7° (Epoch: 17 September)

Event Time Altitude Azimuth Distance (km) Brightness Sun altitude
Rises 02:07:15 0° 17° (NNE) 3,277 8.3 -20.7°
Reaches altitude 10° 02:09:37 10° 21° (NNE) 2,344 7.5 -20.4°
Maximum altitude 02:14:44 61° 101° (ESE) 886 4.4 -19.7°
Enters shadow 02:18:03 22° 176° (S) 1,661 5.4 -19.3°
